Regional Weather Roundup
Issued by NWS

Home | Current Version | Previous Version | Text Only | Print | Product List | Glossary On
Versions: 1 2 3 4 5 6 7 8 9 10 11 12 13 14 15 16 17 18 19 20 21 22 23 24 25 26 27 28 29 30 31 32 33 34 35 36 37 38 39 40 41 42 43 44 45 46 47 48 49 50
988
ASUS44 KJAN 202010
RWRMS

MISSISSIPPI HOURLY WEATHER ROUNDUP
NATIONAL WEATHER SERVICE JACKSON MS
300 PM CDT SAT SEP 20 2014

NOTE: "FAIR: INDICATES FEW OR NO CLOUDS BELOW 12,000 FEET WITH NO
SIGNIFICANT WEATHER AND/OR OBSTRUCTIONS TO VISIBILITY.

MSZ001>002-007>008-010>013-018>021-025>028-034>036-202100-
NORTHWEST MISSISSIPPI

CITY           SKY/WX    TMP DP  RH WIND       PRES   REMARKS
CLARKSDALE     FAIR      90  64  43 CALM      30.00F HX  91
CLEVELAND      FAIR      91  65  43 CALM      29.98F HX  92
GREENWOOD      SUNNY     91  65  41 VRB3      29.99F HX  93
GREENVILLE     SUNNY     92  61  35 S6        29.97F HX  92
GRENADA        FAIR      88  63  42 NE5       30.01F
OLIVE BRANCH   PTSUNNY   86  70  58 SW6       30.01F HX  90
OXFORD         PTSUNNY   82  66  57 E3        30.04F
TUNICA         PTCLDY    86  64  48 CALM      30.00F
$$

MSZ003>006-009-014>017-022>024-029>033-037>039-202100-
NORTHEAST MISSISSIPPI

CITY           SKY/WX    TMP DP  RH WIND       PRES   REMARKS
COLUMBUS AFB   SUNNY     86  64  47 VRB2      30.01F
CORINTH        FAIR      88  66  48 CALM      30.02F HX  90
GOLDN TRIANGLE PTSUNNY   86  64  48 E3        30.02F
STARKVILLE     FAIR      86  64  48 SE5       30.01F
TUPELO         PTSUNNY   86  66  51 SE6       30.02F
$$

MSZ040-058-202100-
CENTRAL MISSISSIPPI

CITY           SKY/WX    TMP DP  RH WIND       PRES   REMARKS
JACKSON INTL   MOSUNNY   89  65  44 VRB6      29.99F HX  91
JACKSON HAWKNS MOSUNNY   87  67  51 VRB5      30.00F HX  90
MERIDIAN KEY   PTSUNNY   88  62  41 NE10      29.99F
MERIDIAN NAS   SUNNY     88  62  41 E9        29.99F
RAYMOND        FAIR      91  84  79 E5        29.99F HX 118
VICKSBURG      SUNNY     91  66  43 MISG      29.98F HX  93
$$

MSZ059>079-202100-
SOUTH MISSISSIPPI

CITY           SKY/WX    TMP DP  RH WIND       PRES   REMARKS
BROOKHAVEN     FAIR      88  66  48 CALM      30.00F HX  90
COLUMBIA       FAIR      88  66  48 E8        29.96F HX  90
HATTIESBURG    MOSUNNY   87  66  49 E8        29.97F
MCCOMB         MOSUNNY   87  64  46 VRB5      29.98F
NATCHEZ        MOSUNNY   88  70  55 E7        29.98F HX  92
PINE BELT      MOSUNNY  N/A N/A N/A NE7       29.99F
$$

MSZ080>082-202100-
COASTAL MISSISSIPPI

CITY           SKY/WX    TMP DP  RH WIND       PRES   REMARKS
BAY ST LOUIS   PTSUNNY   88  63  42 E8        29.95F
BILOXI         MOSUNNY   89  67  49 NE10      29.95F HX  91
PASCAGOULA     MOSUNNY   85  68  56 E10       29.96F
GULFPORT       MOSUNNY   87  65  47 E9        29.94F
$$



USA.gov is the U.S. government's official web portal to all federal, state and local government web resources and services.